Home   Weather   San Antonio   Past weeks

Flag for USA Past Weather in San Antonio, Texas, USA — Yesterday and Last 2 Weeks

Now
85 °F

Passing clouds.


Feels Like: 89 °F
Forecast: 78 / 99 °F
Wind: 14 mph from Southeast

Location: San Antonio International Airport

Current Time: Jul 25, 2017 at 11:51:26 pm

Latest Report: Jul 25, 2017 at 10:51 pm


Visibility: 10 mi

Pressure: 30.03 "Hg

Humidity: 61%

Dew Point: 70 °F

Location of San AntonioLocation

Past Weather in San Antonio — Graph

°F

San Antonio Temperature Yesterday

Maximum temperature yesterday: 99 °F (at 4:51 pm)
Minimum temperature yesterday: 78 °F (at 6:32 am)
Average temperature yesterday: 87 °F

High & Low Weather Summary for the Past Weeks

 TemperatureHumidityPressure
High100 °F (Jul 22, 5:51 pm)91% (Jul 13, 5:02 am)30.14 "Hg (Jul 13, 5:02 am)
Low72 °F (Jul 16, 5:51 am)26% (Jul 24, 4:51 pm)29.79 "Hg (Jul 22, 6:51 pm)
Average85 °F62%29.96 "Hg
* Reported Jul 10 9:51 pm — Jul 25 9:51 pm, San Antonio. Weather by CustomWeather, © 2017

Note: Actual official high and low records may vary slightly from our data, if they occured in-between our weather recording intervals... More about our weather records

Advertising

San Antonio Weather History for the Previous 24 Hours

Scroll right to see more
 ConditionsComfort  
Time TempWeatherWind HumidityBarometerVisibility
9:51 pm
Tue, Jul 25
87 °FPassing clouds.18 mph57%30.01 "Hg10 mi
8:51 pm89 °FPartly cloudy.24 mph53%29.98 "Hg10 mi
7:51 pm92 °FScattered clouds.20 mph46%29.95 "Hg10 mi
6:51 pm96 °FScattered clouds.21 mph38%29.93 "Hg10 mi
5:51 pm97 °FScattered clouds.17 mph37%29.93 "Hg10 mi
4:51 pm99 °FScattered clouds.12 mph32%29.95 "Hg10 mi
3:51 pm98 °FScattered clouds.10 mph36%29.97 "Hg10 mi
2:51 pm95 °FScattered clouds.9 mph41%29.99 "Hg10 mi
1:51 pm96 °FBroken clouds.16 mph41%30.01 "Hg10 mi
12:51 pm90 °FBroken clouds.8 mph52%30.02 "Hg10 mi
11:51 am89 °FBroken clouds.12 mph55%30.04 "Hg10 mi
10:51 am87 °FBroken clouds.9 mph61%30.05 "Hg10 mi
9:51 am83 °FPartly sunny.14 mph70%30.05 "Hg10 mi
8:51 am81 °FPartly sunny.13 mph77%30.04 "Hg10 mi
7:51 am80 °FMostly cloudy.10 mph79%30.03 "Hg10 mi
6:51 am78 °FPartly sunny.9 mph87%30.02 "Hg9 mi
6:38 am77 °FPassing clouds.9 mph88%30.08 "Hg10 mi
6:06 am78 °FPassing clouds.10 mph84%30.07 "Hg10 mi
5:30 am78 °FPassing clouds.8 mph84%30.06 "Hg10 mi
4:51 am79 °FPassing clouds.8 mph82%29.99 "Hg10 mi
3:51 am79 °FMostly cloudy.9 mph82%29.98 "Hg10 mi
2:51 am80 °FPassing clouds.12 mph79%29.97 "Hg10 mi
1:51 am80 °FPassing clouds.14 mph79%29.97 "Hg10 mi
1:21 am81 °FPassing clouds.13 mph74%30.03 "Hg10 mi
12:51 am81 °FPassing clouds.13 mph74%29.96 "Hg10 mi
11:51 pm
Mon, Jul 24
83 °FPassing clouds.14 mph65%29.96 "Hg10 mi
Weather by CustomWeather, © 2017

See weather overviewHow to use our weather pages